Change the Weather History Date:

Monday, December 31, 2012

  Actual Average (KFNT) Record (KFNT)
Temperature  
Mean Temperature 29 °F 24 °F  
Max Temperature 36 °F 31 °F 61 °F (1965)
Min Temperature 22 °F 17 °F -11 °F (1963)
Degree Days  
Heating Degree Days 36 41  
Month to date heating degree days 1163  
Since 1 July heating degree days 2645  
Cooling Degree Days 0 0  
Month to date cooling degree days 0  
Year to date cooling degree days 531  
Moisture  
Dew Point 22 °F    
Average Humidity 70    
Maximum Humidity 80    
Minimum Humidity 56    
Precipitation  
Precipitation 0.00 in 0.06 in 1.04 in (1978)
Month to date precipitation 1.92  
Year to date precipitation 31.37  
Snow  
Snow 0.00 in 0.50 in 3.70 in (1974)
Month to date snowfall 11.8  
Since 1 July snowfall 14.7  
Snow Depth -    
Sea Level Pressure  
Sea Level Pressure 29.97 in    
Wind  
Wind Speed 10 mph (WSW)    
Max Wind Speed 17 mph    
Max Gust Speed 22 mph    
Visibility 10 miles    
Events      
T = Trace of Precipitation, MM = Missing Value Source: NWS Daily Summary

Daily Weather History Graph

Daily Weather History Graph

Search for Another Location

Airport or City:

Trip Planner

Search our weather history database for the weather conditions in past years. The results will help you decide how hot, cold, wet, or windy it might be!

Date:

Astronomy

Dec. 31, 2012 Rise Set
Actual Time 8:07 AM EST 5:12 PM EST
Civil Twilight 7:35 AM EST 5:44 PM EST
Nautical Twilight 6:59 AM EST 6:20 PM EST
Astronomical Twilight 6:25 AM EST 6:54 PM EST
Moon 8:47 PM EST (12/31) 9:43 AM EST (12/31)
Length of Visible Light 10h 08m
Length of Day
9h 04m
Waning Gibbous, 90% of the Moon is Illuminated
Dec 31
Waning Gibbous
Jan 4
Last Quarter
Jan 11
New
Jan 18
First Quarter
Jan 26
Full

Hourly Weather History & Observations

Time (EST) Temp. Windchill Dew Point Humidity Pressure Visibility Wind Dir Wind Speed Gust Speed Precip Events Conditions
12:15 AM 22.8 °F 14.5 °F 17.6 °F 80% 30.12 in 7.0 mi SSW 6.9 mph - N/A   Scattered Clouds
12:35 AM 23.4 °F 15.2 °F 17.6 °F 79% 30.11 in 7.0 mi SSW 6.9 mph - N/A   Scattered Clouds
12:55 AM 23.0 °F 13.9 °F 17.6 °F 80% 30.10 in 7.0 mi SSW 8.1 mph - N/A   Clear
1:15 AM 22.8 °F 14.5 °F 17.4 °F 80% 30.09 in 7.0 mi SSW 6.9 mph - N/A   Clear
1:35 AM 22.8 °F 14.5 °F 17.6 °F 80% 30.08 in 7.0 mi SSW 6.9 mph - N/A   Clear
1:55 AM 23.4 °F 15.2 °F 18.1 °F 80% 30.07 in 7.0 mi SSW 6.9 mph - N/A   Clear
2:15 AM 24.8 °F 15.3 °F 18.7 °F 78% 30.07 in 10.0 mi SSW 9.2 mph - N/A   Clear
2:34 AM 25.7 °F 15.7 °F 18.9 °F 75% 30.06 in 10.0 mi SSW 10.4 mph - N/A   Clear
2:55 AM 26.6 °F 16.2 °F 18.7 °F 72% 30.04 in 10.0 mi SSW 11.5 mph - N/A   Clear
3:15 AM 26.6 °F 18.2 °F 18.5 °F 71% 30.03 in 10.0 mi SSW 8.1 mph - N/A   Clear
3:34 AM 26.6 °F 18.2 °F 18.5 °F 71% 30.02 in 10.0 mi SSW 8.1 mph - N/A   Clear
3:55 AM 27.1 °F 18.2 °F 18.5 °F 70% 30.02 in 10.0 mi SSW 9.2 mph - N/A   Clear
4:14 AM 27.3 °F 17.7 °F 18.5 °F 69% 30.01 in 10.0 mi SSW 10.4 mph 17.3 mph N/A   Clear
4:35 AM 27.5 °F 17.4 °F 18.5 °F 69% 29.99 in 10.0 mi SSW 11.5 mph 17.3 mph N/A   Clear
4:55 AM 27.7 °F 17.1 °F 18.5 °F 68% 29.99 in 10.0 mi SSW 12.7 mph - N/A   Clear
5:15 AM 27.3 °F 17.1 °F 18.3 °F 69% 29.98 in 10.0 mi SSW 11.5 mph 17.3 mph N/A   Clear
5:35 AM 27.3 °F 18.4 °F 18.3 °F 69% 29.98 in 10.0 mi SSW 9.2 mph 17.3 mph N/A   Clear
5:54 AM 27.1 °F 17.5 °F 18.3 °F 69% 29.98 in 10.0 mi SSW 10.4 mph - N/A   Clear
6:15 AM 27.0 °F 18.0 °F 18.3 °F 70% 29.98 in 10.0 mi SSW 9.2 mph - N/A   Clear
6:35 AM 28.0 °F 18.6 °F 18.9 °F 68% 29.98 in 10.0 mi SSW 10.4 mph - N/A   Clear
6:55 AM 28.8 °F 19.5 °F 19.2 °F 68% 29.98 in 10.0 mi SW 10.4 mph - N/A   Clear
7:15 AM 29.1 °F 20.0 °F 19.4 °F 67% 29.96 in 10.0 mi SSW 10.4 mph 16.1 mph N/A   Clear
7:35 AM 29.1 °F 21.3 °F 19.8 °F 68% 29.96 in 10.0 mi SW 8.1 mph - N/A   Clear
7:55 AM 29.7 °F 21.3 °F 20.1 °F 68% 29.96 in 10.0 mi SW 9.2 mph - N/A   Clear
8:15 AM 29.7 °F 21.3 °F 20.3 °F 68% 29.95 in 10.0 mi SW 9.2 mph 16.1 mph N/A   Clear
8:35 AM 30.4 °F 21.5 °F 21.2 °F 69% 29.94 in 10.0 mi SW 10.4 mph 17.3 mph N/A   Mostly Cloudy
8:55 AM 30.7 °F 20.9 °F 21.4 °F 68% 29.94 in 10.0 mi SW 12.7 mph 17.3 mph N/A   Overcast
9:15 AM 31.1 °F 22.4 °F 22.1 °F 69% 29.93 in 10.0 mi SW 10.4 mph 17.3 mph N/A   Overcast
9:34 AM 31.5 °F 21.8 °F 22.6 °F 70% 29.93 in 10.0 mi SSW 12.7 mph - N/A   Overcast
9:55 AM 32.0 °F 24.2 °F 23.0 °F 69% 29.93 in 10.0 mi SW 9.2 mph 17.3 mph N/A   Overcast
10:15 AM 32.4 °F 24.0 °F 23.9 °F 71% 29.93 in 10.0 mi SW 10.4 mph - N/A   Overcast
10:35 AM 33.3 °F 24.1 °F 24.4 °F 70% 29.94 in 10.0 mi SW 12.7 mph - N/A   Overcast
10:55 AM 34.0 °F 26.6 °F 24.8 °F 69% 29.94 in 10.0 mi SW 9.2 mph 17.3 mph N/A   Overcast
11:15 AM 34.3 °F 26.5 °F 25.0 °F 69% 29.93 in 10.0 mi SW 10.4 mph 17.3 mph N/A   Overcast
11:35 AM 34.9 °F 26.2 °F 25.2 °F 68% 29.93 in 10.0 mi SW 12.7 mph 20.7 mph N/A   Overcast
11:55 AM 35.1 °F 26.9 °F 25.3 °F 68% 29.92 in 10.0 mi SW 11.5 mph 17.3 mph N/A   Overcast
12:15 PM 35.2 °F 26.2 °F 25.7 °F 68% 29.91 in 10.0 mi SW 13.8 mph 18.4 mph N/A   Overcast
12:35 PM 35.6 °F 28.0 °F 26.1 °F 68% 29.90 in 10.0 mi SW 10.4 mph - N/A   Overcast
12:55 PM 35.8 °F 28.3 °F 26.4 °F 69% 29.89 in 10.0 mi WSW 10.4 mph 18.4 mph N/A   Overcast
1:14 PM 35.8 °F 28.3 °F 26.6 °F 69% 29.88 in 10.0 mi WSW 10.4 mph 17.3 mph N/A   Overcast
1:35 PM 36.1 °F 29.3 °F 27.1 °F 70% 29.87 in 10.0 mi WSW 9.2 mph - N/A   Overcast
1:55 PM 36.1 °F 28.2 °F 27.3 °F 70% 29.87 in 10.0 mi WSW 11.5 mph - N/A   Overcast
2:14 PM 36.1 °F 28.7 °F 27.3 °F 70% 29.88 in 10.0 mi WSW 10.4 mph - N/A   Overcast
2:35 PM 36.5 °F 30.3 °F 27.5 °F 70% 29.88 in 10.0 mi WSW 8.1 mph 18.4 mph N/A   Overcast
2:55 PM 36.5 °F 29.7 °F 27.5 °F 70% 29.88 in 10.0 mi WSW 9.2 mph 17.3 mph N/A   Overcast
3:15 PM 36.1 °F 28.2 °F 27.3 °F 70% 29.89 in 10.0 mi WSW 11.5 mph 21.9 mph N/A   Overcast
3:35 PM 36.0 °F 28.0 °F 27.5 °F 71% 29.90 in 10.0 mi WSW 11.5 mph - N/A   Overcast
3:55 PM 35.6 °F 26.2 °F 27.0 °F 71% 29.91 in 10.0 mi WSW 15.0 mph 21.9 mph N/A   Overcast
4:15 PM 35.2 °F 26.6 °F 27.1 °F 72% 29.92 in 10.0 mi West 12.7 mph - N/A   Overcast
4:35 PM 34.9 °F 25.7 °F 27.1 °F 73% 29.91 in 10.0 mi West 13.8 mph 17.3 mph N/A   Overcast
4:55 PM 34.3 °F 24.2 °F 26.4 °F 73% 29.92 in 10.0 mi West 16.1 mph 21.9 mph N/A   Overcast
5:15 PM 33.8 °F 23.2 °F 26.1 °F 73% 29.92 in 10.0 mi West 17.3 mph 21.9 mph N/A   Overcast
5:35 PM 33.3 °F 22.5 °F 25.9 °F 74% 29.93 in 10.0 mi West 17.3 mph 21.9 mph N/A   Overcast
5:54 PM 32.9 °F 24.1 °F 25.9 °F 75% 29.94 in 10.0 mi West 11.5 mph - N/A   Overcast
6:15 PM 32.4 °F 23.5 °F 25.3 °F 75% 29.95 in 10.0 mi WNW 11.5 mph 18.4 mph N/A   Overcast
6:35 PM 32.0 °F 22.5 °F 24.3 °F 73% 29.96 in 10.0 mi WNW 12.7 mph 18.4 mph N/A   Overcast
6:54 PM 32.0 °F 24.2 °F 23.9 °F 72% 29.96 in 10.0 mi WNW 9.2 mph 16.1 mph N/A   Overcast
6:59 PM 32.0 °F 23.6 °F 23.9 °F 72% 29.96 in 10.0 mi West 10.4 mph - N/A   Overcast
7:35 PM 31.6 °F 23.1 °F 23.7 °F 73% 29.98 in 10.0 mi West 10.4 mph - N/A   Overcast
7:55 PM 31.1 °F 22.4 °F 23.5 °F 74% 29.98 in 10.0 mi West 10.4 mph - N/A   Overcast
8:15 PM 31.1 °F 23.1 °F 23.5 °F 74% 29.98 in 10.0 mi West 9.2 mph - N/A   Overcast
8:35 PM 30.9 °F 22.8 °F 23.5 °F 74% 29.98 in 10.0 mi West 9.2 mph - N/A   Overcast
8:55 PM 30.7 °F 22.6 °F 22.6 °F 72% 29.98 in 10.0 mi West 9.2 mph - N/A   Overcast
9:15 PM 30.7 °F 22.0 °F 21.0 °F 67% 29.99 in 10.0 mi West 10.4 mph - N/A   Overcast
9:34 PM 30.4 °F 22.2 °F 20.1 °F 66% 30.00 in 10.0 mi West 9.2 mph - N/A   Overcast
9:55 PM 29.7 °F 20.7 °F 19.6 °F 66% 30.00 in 10.0 mi NW 10.4 mph - N/A   Overcast
10:15 PM 29.3 °F 21.5 °F 17.6 °F 62% 29.99 in 10.0 mi NW 8.1 mph - N/A   Overcast
10:34 PM 28.9 °F 21.1 °F 16.5 °F 60% 30.00 in 10.0 mi WNW 8.1 mph - N/A   Overcast
10:55 PM 28.4 °F 21.2 °F 15.8 °F 59% 30.00 in 10.0 mi WNW 6.9 mph - N/A   Overcast
11:15 PM 28.2 °F 21.0 °F 14.9 °F 57% 30.00 in 10.0 mi NW 6.9 mph - N/A   Overcast
11:35 PM 28.2 °F 19.5 °F 14.4 °F 56% 30.01 in 10.0 mi WNW 9.2 mph - N/A   Overcast
11:55 PM 28.2 °F 21.0 °F 14.9 °F 57% 30.02 in 10.0 mi WNW 6.9 mph - N/A   Overcast